Location: Elbart
(49.6135°N, 11.9134°E)
Time: 09:41:59
(UTC+00:00)

ATLAS 5 CENTAUR R/B - Pass Details

Date: 09 April 2020
Orbit: 543 x 1116 km, 63.4° (Epoch: 01 May)

Event Time Altitude Azimuth Distance (km) Brightness Sun altitude
Rises 19:59:52 0° 241° (WSW) 2,763 5.2 -18.6°
Reaches altitude 10° 20:02:02 10° 247° (WSW) 1,913 4.4 -18.9°
Maximum altitude 20:06:10 47° 322° (NW) 853 2.7 -19.4°
Drops below altitude 10° 20:10:54 10° 36° (NE) 2,188 4.4 -20.0°
Sets 20:13:33 0° 43° (NE) 3,210 5.2 -20.3°
